Wetterdaten: Montag, 03.11.2014
Datum Zeit Temperatur Luftfeuchte Luftdruck Regen Wind Richtung Richtung Taupunkt Windchill Windben
03.11.2014 00:00 5,6 C 82 % 1017,6 hPa 0,0 l/m 0,0 km/h (0 Bft) SO 135 2,8 C 7,8 C 0,0 km/h (0 Bft)
03.11.2014 00:05 5,1 C 81 % 1017,6 hPa 0,0 l/m 0,0 km/h (0 Bft) SO 135 2,1 C 7,8 C 0,0 km/h (0 Bft)
03.11.2014 00:10 5,2 C 81 % 1017,6 hPa 0,0 l/m 0,0 km/h (0 Bft) SO 135 2,2 C 7,8 C 0,0 km/h (0 Bft)
03.11.2014 00:15 4,9 C 80 % 1017,6 hPa 0,0 l/m 0,0 km/h (0 Bft) SO 135 1,7 C 7,8 C 0,0 km/h (0 Bft)
03.11.2014 00:20 4,9 C 80 % 1017,4 hPa 0,0 l/m 0,0 km/h (0 Bft) SO 135 1,7 C 7,8 C 0,0 km/h (0 Bft)
03.11.2014 00:25 5,0 C 80 % 1017,4 hPa 0,0 l/m 0,0 km/h (0 Bft) SO 135 1,8 C 7,8 C 0,0 km/h (0 Bft)
03.11.2014 00:30 5,1 C 81 % 1017,4 hPa 0,0 l/m 0,0 km/h (0 Bft) SO 135 2,1 C 7,8 C 0,0 km/h (0 Bft)
03.11.2014 00:35 5,1 C 81 % 1017,4 hPa 0,0 l/m 0,0 km/h (0 Bft) SO 135 2,1 C 7,8 C 0,0 km/h (0 Bft)
03.11.2014 00:40 5,0 C 81 % 1017,2 hPa 0,0 l/m 0,0 km/h (0 Bft) SO 135 2,0 C 7,8 C 0,0 km/h (0 Bft)
03.11.2014 00:43 5,1 C 80 % 1017,2 hPa 0,0 l/m 0,0 km/h (0 Bft) SO 135 1,9 C 7,8 C 0,0 km/h (0 Bft)
03.11.2014 00:50 5,4 C 81 % 1017,2 hPa 0,0 l/m 0,0 km/h (0 Bft) SO 135 2,4 C 7,8 C 0,0 km/h (0 Bft)
03.11.2014 00:55 6,0 C 80 % 1017,2 hPa 0,0 l/m 0,0 km/h (0 Bft) SO 135 2,8 C 7,8 C 0,0 km/h (0 Bft)
03.11.2014 01:00 6,0 C 80 % 1017,1 hPa 0,0 l/m 0,0 km/h (0 Bft) SO 135 2,8 C 7,8 C 0,0 km/h (0 Bft)
03.11.2014 01:05 6,2 C 79 % 1017,1 hPa 0,0 l/m 0,0 km/h (0 Bft) SO 135 2,8 C 7,8 C 0,0 km/h (0 Bft)
03.11.2014 01:10 6,6 C 79 % 1017,1 hPa 0,0 l/m 0,0 km/h (0 Bft) SO 135 3,2 C 7,8 C 0,0 km/h (0 Bft)
03.11.2014 01:15 6,5 C 78 % 1017,1 hPa 0,0 l/m 0,0 km/h (0 Bft) SO 135 2,9 C 7,8 C 0,0 km/h (0 Bft)
03.11.2014 01:20 6,3 C 77 % 1016,9 hPa 0,0 l/m 0,0 km/h (0 Bft) SO 135 2,6 C 7,8 C 0,0 km/h (0 Bft)
03.11.2014 01:25 5,9 C 76 % 1016,9 hPa 0,0 l/m 0,0 km/h (0 Bft) SO 135 2,0 C 7,8 C 0,0 km/h (0 Bft)
03.11.2014 01:30 5,7 C 76 % 1016,9 hPa 0,0 l/m 0,0 km/h (0 Bft) SO 135 1,8 C 7,8 C 0,0 km/h (0 Bft)
03.11.2014 01:35 5,3 C 76 % 1016,9 hPa 0,0 l/m 0,0 km/h (0 Bft) SO 135 1,4 C 7,8 C 0,0 km/h (0 Bft)
03.11.2014 01:40 5,1 C 77 % 1017,1 hPa 0,0 l/m 0,0 km/h (0 Bft) SO 135 1,4 C 7,8 C 0,0 km/h (0 Bft)
03.11.2014 01:45 4,5 C 77 % 1017,1 hPa 0,0 l/m 0,0 km/h (0 Bft) SO 135 0,8 C 7,8 C 0,0 km/h (0 Bft)
03.11.2014 01:50 4,3 C 78 % 1017,1 hPa 0,0 l/m 0,0 km/h (0 Bft) SO 135 0,8 C 7,8 C 0,0 km/h (0 Bft)
03.11.2014 01:55 4,9 C 78 % 1017,1 hPa 0,0 l/m 0,0 km/h (0 Bft) SO 135 1,4 C 7,8 C 0,0 km/h (0 Bft)
03.11.2014 02:00 5,7 C 78 % 1017,3 hPa 0,0 l/m 0,0 km/h (0 Bft) SO 135 2,2 C 7,8 C 0,0 km/h (0 Bft)
03.11.2014 02:05 5,5 C 77 % 1017,3 hPa 0,0 l/m 0,0 km/h (0 Bft) SO 135 1,8 C 7,8 C 0,0 km/h (0 Bft)
03.11.2014 02:10 6,5 C 75 % 1017,3 hPa 0,0 l/m 0,0 km/h (0 Bft) SO 135 2,4 C 7,8 C 0,0 km/h (0 Bft)
03.11.2014 02:15 4,4 C 74 % 1017,3 hPa 0,0 l/m 0,0 km/h (0 Bft) SO 135 0,2 C 7,8 C 0,0 km/h (0 Bft)
03.11.2014 02:20 5,7 C 76 % 1017,2 hPa 0,0 l/m 0,0 km/h (0 Bft) SO 135 1,8 C 7,8 C 0,0 km/h (0 Bft)
03.11.2014 02:25 6,5 C 73 % 1017,2 hPa 0,0 l/m 0,0 km/h (0 Bft) SO 135 2,0 C 7,8 C 0,0 km/h (0 Bft)
03.11.2014 02:30 5,0 C 73 % 1017,2 hPa 0,0 l/m 0,0 km/h (0 Bft) SO 135 0,6 C 7,8 C 0,0 km/h (0 Bft)
03.11.2014 02:35 4,4 C 75 % 1017,2 hPa 0,0 l/m 0,0 km/h (0 Bft) SO 135 0,4 C 7,8 C 0,0 km/h (0 Bft)
03.11.2014 02:40 4,4 C 77 % 1016,8 hPa 0,0 l/m 0,0 km/h (0 Bft) SO 135 0,7 C 7,8 C 0,0 km/h (0 Bft)
03.11.2014 02:45 3,8 C 77 % 1016,8 hPa 0,0 l/m 0,0 km/h (0 Bft) SO 135 0,1 C 7,8 C 0,0 km/h (0 Bft)
03.11.2014 02:50 3,5 C 78 % 1016,8 hPa 0,0 l/m 0,0 km/h (0 Bft) SO 135 0,0 C 7,8 C 0,0 km/h (0 Bft)
03.11.2014 02:55 3,7 C 80 % 1016,8 hPa 0,0 l/m 0,0 km/h (0 Bft) SO 135 0,6 C 7,8 C 0,0 km/h (0 Bft)
03.11.2014 03:00 3,7 C 80 % 1016,5 hPa 0,0 l/m 0,0 km/h (0 Bft) SO 135 0,6 C 7,8 C 0,0 km/h (0 Bft)
03.11.2014 03:05 3,7 C 80 % 1016,5 hPa 0,0 l/m 0,0 km/h (0 Bft) SO 135 0,6 C 7,8 C 0,0 km/h (0 Bft)
03.11.2014 03:10 3,6 C 80 % 1016,5 hPa 0,0 l/m 0,0 km/h (0 Bft) SO 135 0,5 C 7,8 C 0,0 km/h (0 Bft)
03.11.2014 03:15 3,6 C 80 % 1016,5 hPa 0,0 l/m 0,0 km/h (0 Bft) SO 135 0,5 C 7,8 C 0,0 km/h (0 Bft)
03.11.2014 03:20 3,2 C 80 % 1016,4 hPa 0,0 l/m 0,0 km/h (0 Bft) SO 135 0,1 C 7,8 C 0,0 km/h (0 Bft)
03.11.2014 03:25 3,1 C 81 % 1016,4 hPa 0,0 l/m 0,0 km/h (0 Bft) SO 135 0,2 C 7,8 C 0,0 km/h (0 Bft)
03.11.2014 03:30 3,1 C 81 % 1016,4 hPa 0,0 l/m 0,0 km/h (0 Bft) SO 135 0,2 C 7,8 C 0,0 km/h (0 Bft)
03.11.2014 03:35 2,7 C 82 % 1016,4 hPa 0,0 l/m 0,0 km/h (0 Bft) SO 135 -0,1 C 7,8 C 0,0 km/h (0 Bft)
03.11.2014 03:40 2,8 C 83 % 1016,3 hPa 0,0 l/m 0,0 km/h (0 Bft) SO 135 0,2 C 7,8 C 0,0 km/h (0 Bft)
03.11.2014 03:43 3,0 C 83 % 1016,3 hPa 0,0 l/m 0,0 km/h (0 Bft) SO 135 0,4 C 7,8 C 0,0 km/h (0 Bft)
03.11.2014 03:45 3,0 C 83 % 1016,3 hPa 0,0 l/m 0,0 km/h (0 Bft) SO 135 0,4 C 7,8 C 0,0 km/h (0 Bft)
03.11.2014 03:50 2,8 C 83 % 1016,3 hPa 0,0 l/m 0,0 km/h (0 Bft) SO 135 0,2 C 7,8 C 0,0 km/h (0 Bft)
03.11.2014 03:55 2,7 C 84 % 1016,3 hPa 0,0 l/m 0,0 km/h (0 Bft) SO 135 0,3 C 7,8 C 0,0 km/h (0 Bft)
03.11.2014 04:00 2,7 C 84 % 1016,1 hPa 0,0 l/m 0,0 km/h (0 Bft) SO 135 0,3 C 7,8 C 0,0 km/h (0 Bft)
03.11.2014 04:05 2,4 C 84 % 1016,1 hPa 0,0 l/m 0,0 km/h (0 Bft) SO 135 -0,0 C 7,8 C 0,0 km/h (0 Bft)
03.11.2014 04:10 2,2 C 84 % 1016,1 hPa 0,0 l/m 0,0 km/h (0 Bft) SO 135 -0,2 C 7,8 C 0,0 km/h (0 Bft)
03.11.2014 04:15 2,2 C 84 % 1016,1 hPa 0,0 l/m 0,0 km/h (0 Bft) SO 135 -0,2 C 7,8 C 0,0 km/h (0 Bft)
03.11.2014 04:20 2,3 C 85 % 1015,9 hPa 0,0 l/m 0,0 km/h (0 Bft) SO 135 0,0 C 7,8 C 0,0 km/h (0 Bft)
03.11.2014 04:25 2,7 C 86 % 1015,9 hPa 0,0 l/m 0,0 km/h (0 Bft) SO 135 0,6 C 7,8 C 0,0 km/h (0 Bft)
03.11.2014 04:30 2,6 C 86 % 1015,9 hPa 0,0 l/m 0,0 km/h (0 Bft) SO 135 0,5 C 7,8 C 0,0 km/h (0 Bft)
03.11.2014 04:35 2,6 C 86 % 1015,9 hPa 0,0 l/m 0,0 km/h (0 Bft) SO 135 0,5 C 7,8 C 0,0 km/h (0 Bft)
03.11.2014 04:40 2,6 C 86 % 1015,8 hPa 0,0 l/m 0,0 km/h (0 Bft) SO 135 0,5 C 7,8 C 0,0 km/h (0 Bft)
03.11.2014 04:45 2,7 C 86 % 1015,8 hPa 0,0 l/m 0,0 km/h (0 Bft) SO 135 0,6 C 7,8 C 0,0 km/h (0 Bft)
03.11.2014 04:50 2,8 C 86 % 1015,8 hPa 0,0 l/m 0,0 km/h (0 Bft) SO 135 0,7 C 7,8 C 0,0 km/h (0 Bft)
03.11.2014 04:55 2,7 C 86 % 1015,8 hPa 0,0 l/m 0,0 km/h (0 Bft) SO 135 0,6 C 7,8 C 0,0 km/h (0 Bft)
03.11.2014 05:00 2,7 C 86 % 1015,7 hPa 0,0 l/m 0,0 km/h (0 Bft) SO 135 0,6 C 7,8 C 0,0 km/h (0 Bft)
03.11.2014 05:05 3,1 C 86 % 1015,7 hPa 0,0 l/m 0,0 km/h (0 Bft) SO 135 1,0 C 7,8 C 0,0 km/h (0 Bft)
03.11.2014 05:10 3,4 C 86 % 1015,7 hPa 0,0 l/m 0,0 km/h (0 Bft) SO 135 1,3 C 7,8 C 0,0 km/h (0 Bft)
03.11.2014 05:15 3,0 C 86 % 1015,7 hPa 0,0 l/m 0,0 km/h (0 Bft) SO 135 0,9 C 7,8 C 0,0 km/h (0 Bft)
03.11.2014 05:20 2,7 C 86 % 1015,8 hPa 0,0 l/m 0,0 km/h (0 Bft) SO 135 0,6 C 7,8 C 0,0 km/h (0 Bft)
03.11.2014 05:25 2,8 C 86 % 1015,8 hPa 0,0 l/m 0,0 km/h (0 Bft) SO 135 0,7 C 7,8 C 0,0 km/h (0 Bft)
03.11.2014 05:30 2,7 C 86 % 1015,8 hPa 0,0 l/m 0,0 km/h (0 Bft) SO 135 0,6 C 7,8 C 0,0 km/h (0 Bft)
03.11.2014 05:35 2,8 C 86 % 1015,8 hPa 0,0 l/m 0,0 km/h (0 Bft) SO 135 0,7 C 7,8 C 0,0 km/h (0 Bft)
03.11.2014 05:40 2,4 C 86 % 1016,1 hPa 0,0 l/m 0,0 km/h (0 Bft) SO 135 0,3 C 7,8 C 0,0 km/h (0 Bft)
03.11.2014 05:45 2,9 C 87 % 1016,1 hPa 0,0 l/m 0,0 km/h (0 Bft) SO 135 1,0 C 7,8 C 0,0 km/h (0 Bft)
03.11.2014 05:50 3,0 C 86 % 1016,1 hPa 0,0 l/m 0,0 km/h (0 Bft) SO 135 0,9 C 7,8 C 0,0 km/h (0 Bft)
03.11.2014 05:55 4,1 C 87 % 1016,1 hPa 0,0 l/m 0,0 km/h (0 Bft) SO 135 2,1 C 7,8 C 0,0 km/h (0 Bft)
03.11.2014 06:00 3,2 C 86 % 1016,4 hPa 0,0 l/m 0,0 km/h (0 Bft) SO 135 1,1 C 7,8 C 0,0 km/h (0 Bft)
03.11.2014 06:05 4,5 C 86 % 1016,4 hPa 0,0 l/m 0,0 km/h (0 Bft) SO 135 2,4 C 7,8 C 0,0 km/h (0 Bft)
03.11.2014 06:10 5,5 C 84 % 1016,4 hPa 0,0 l/m 0,0 km/h (0 Bft) SO 135 3,0 C 7,8 C 0,0 km/h (0 Bft)
03.11.2014 06:15 5,2 C 79 % 1016,4 hPa 0,0 l/m 0,0 km/h (0 Bft) SO 135 1,9 C 7,8 C 0,0 km/h (0 Bft)
03.11.2014 06:20 5,2 C 79 % 1016,4 hPa 0,0 l/m 0,0 km/h (0 Bft) SO 135 1,9 C 7,8 C 0,0 km/h (0 Bft)
03.11.2014 06:25 6,9 C 72 % 1016,4 hPa 0,0 l/m 0,0 km/h (0 Bft) SO 135 2,2 C 7,8 C 0,0 km/h (0 Bft)
03.11.2014 06:30 6,3 C 70 % 1016,4 hPa 0,0 l/m 0,0 km/h (0 Bft) SO 135 1,2 C 7,8 C 0,0 km/h (0 Bft)
03.11.2014 06:35 4,4 C 72 % 1016,4 hPa 0,0 l/m 0,0 km/h (0 Bft) SO 135 -0,2 C 7,8 C 0,0 km/h (0 Bft)
03.11.2014 06:40 3,8 C 75 % 1016,2 hPa 0,0 l/m 0,0 km/h (0 Bft) SO 135 -0,2 C 7,8 C 0,0 km/h (0 Bft)
03.11.2014 06:43 3,8 C 76 % 1016,2 hPa 0,0 l/m 0,0 km/h (0 Bft) SO 135 -0,0 C 7,8 C 0,0 km/h (0 Bft)
03.11.2014 06:45 3,8 C 76 % 1016,2 hPa 0,0 l/m 0,0 km/h (0 Bft) SO 135 -0,0 C 7,8 C 0,0 km/h (0 Bft)
03.11.2014 06:50 4,1 C 77 % 1016,2 hPa 0,0 l/m 0,0 km/h (0 Bft) SO 135 0,4 C 7,8 C 0,0 km/h (0 Bft)
03.11.2014 06:55 4,3 C 76 % 1016,2 hPa 0,0 l/m 0,0 km/h (0 Bft) SO 135 0,5 C 7,8 C 0,0 km/h (0 Bft)
03.11.2014 07:00 3,4 C 76 % 1016,2 hPa 0,0 l/m 0,0 km/h (0 Bft) SO 135 -0,4 C 7,8 C 0,0 km/h (0 Bft)
03.11.2014 07:05 3,4 C 77 % 1016,2 hPa 0,0 l/m 0,0 km/h (0 Bft) SO 135 -0,2 C 7,8 C 0,0 km/h (0 Bft)
03.11.2014 07:10 4,1 C 78 % 1016,2 hPa 0,0 l/m 0,0 km/h (0 Bft) SO 135 0,6 C 7,8 C 0,0 km/h (0 Bft)
03.11.2014 07:15 3,2 C 78 % 1016,2 hPa 0,0 l/m 0,0 km/h (0 Bft) SO 135 -0,3 C 7,8 C 0,0 km/h (0 Bft)
03.11.2014 07:20 2,9 C 79 % 1016,2 hPa 0,0 l/m 0,0 km/h (0 Bft) SO 135 -0,4 C 7,8 C 0,0 km/h (0 Bft)
03.11.2014 07:25 2,5 C 79 % 1016,2 hPa 0,0 l/m 0,0 km/h (0 Bft) SO 135 -0,8 C 7,8 C 0,0 km/h (0 Bft)
03.11.2014 07:30 2,7 C 81 % 1016,2 hPa 0,0 l/m 0,0 km/h (0 Bft) SO 135 -0,2 C 7,8 C 0,0 km/h (0 Bft)
03.11.2014 07:35 4,0 C 82 % 1016,2 hPa 0,0 l/m 0,0 km/h (0 Bft) SO 135 1,2 C 7,8 C 0,0 km/h (0 Bft)
03.11.2014 07:40 3,3 C 81 % 1016,1 hPa 0,0 l/m 0,0 km/h (0 Bft) SO 135 0,4 C 7,8 C 0,0 km/h (0 Bft)
03.11.2014 07:45 4,5 C 82 % 1016,1 hPa 0,0 l/m 0,0 km/h (0 Bft) SO 135 1,7 C 7,8 C 0,0 km/h (0 Bft)
03.11.2014 07:50 5,2 C 81 % 1016,1 hPa 0,0 l/m 0,0 km/h (0 Bft) SO 135 2,2 C 7,8 C 0,0 km/h (0 Bft)
03.11.2014 07:55 5,2 C 79 % 1016,1 hPa 0,0 l/m 0,0 km/h (0 Bft) SO 135 1,9 C 7,8 C 0,0 km/h (0 Bft)
03.11.2014 08:00 4,9 C 79 % 1016,0 hPa 0,0 l/m 0,0 km/h (0 Bft) SO 135 1,6 C 7,8 C 0,0 km/h (0 Bft)
03.11.2014 08:05 3,9 C 79 % 1016,0 hPa 0,0 l/m 0,0 km/h (0 Bft) SO 135 0,6 C 7,8 C 0,0 km/h (0 Bft)
03.11.2014 08:10 3,7 C 79 % 1016,0 hPa 0,0 l/m 0,0 km/h (0 Bft) SO 135 0,4 C 7,8 C 0,0 km/h (0 Bft)
03.11.2014 08:15 4,0 C 80 % 1016,0 hPa 0,0 l/m 0,0 km/h (0 Bft) SO 135 0,9 C 7,8 C 0,0 km/h (0 Bft)
03.11.2014 08:20 3,9 C 80 % 1015,9 hPa 0,0 l/m 0,0 km/h (0 Bft) SO 135 0,8 C 7,8 C 0,0 km/h (0 Bft)
03.11.2014 08:25 3,7 C 80 % 1015,9 hPa 0,0 l/m 0,0 km/h (0 Bft) SO 135 0,6 C 7,8 C 0,0 km/h (0 Bft)
03.11.2014 08:30 3,8 C 81 % 1015,9 hPa 0,0 l/m 0,0 km/h (0 Bft) SO 135 0,8 C 7,8 C 0,0 km/h (0 Bft)
03.11.2014 08:35 4,2 C 81 % 1015,9 hPa 0,0 l/m 0,0 km/h (0 Bft) SO 135 1,2 C 7,8 C 0,0 km/h (0 Bft)
03.11.2014 08:40 4,2 C 81 % 1015,9 hPa 0,0 l/m 0,0 km/h (0 Bft) SO 135 1,2 C 7,8 C 0,0 km/h (0 Bft)
03.11.2014 08:45 4,3 C 81 % 1015,9 hPa 0,0 l/m 0,0 km/h (0 Bft) SO 135 1,3 C 7,8 C 0,0 km/h (0 Bft)
03.11.2014 08:50 4,3 C 82 % 1015,9 hPa 0,0 l/m 0,0 km/h (0 Bft) SO 135 1,5 C 7,8 C 0,0 km/h (0 Bft)
03.11.2014 08:55 4,7 C 82 % 1015,9 hPa 0,0 l/m 0,0 km/h (0 Bft) SO 135 1,9 C 7,8 C 0,0 km/h (0 Bft)
03.11.2014 09:00 4,8 C 82 % 1015,8 hPa 0,0 l/m 0,0 km/h (0 Bft) SO 135 2,0 C 7,8 C 0,0 km/h (0 Bft)
03.11.2014 09:05 5,2 C 82 % 1015,8 hPa 0,0 l/m 0,0 km/h (0 Bft) SO 135 2,4 C 7,8 C 0,0 km/h (0 Bft)
03.11.2014 09:10 5,1 C 82 % 1015,8 hPa 0,0 l/m 0,0 km/h (0 Bft) SO 135 2,3 C 7,8 C 0,0 km/h (0 Bft)
03.11.2014 09:15 5,6 C 83 % 1015,8 hPa 0,0 l/m 0,0 km/h (0 Bft) SO 135 2,9 C 7,8 C 0,0 km/h (0 Bft)
03.11.2014 09:20 5,4 C 83 % 1015,8 hPa 0,0 l/m 0,0 km/h (0 Bft) SO 135 2,7 C 7,8 C 0,0 km/h (0 Bft)
03.11.2014 09:25 5,7 C 83 % 1015,8 hPa 0,0 l/m 0,0 km/h (0 Bft) SO 135 3,0 C 7,8 C 0,0 km/h (0 Bft)
03.11.2014 09:30 6,1 C 82 % 1015,8 hPa 0,0 l/m 0,0 km/h (0 Bft) SO 135 3,3 C 7,8 C 0,0 km/h (0 Bft)
03.11.2014 09:35 6,8 C 81 % 1015,8 hPa 0,0 l/m 0,0 km/h (0 Bft) SO 135 3,8 C 7,8 C 0,0 km/h (0 Bft)
03.11.2014 09:40 6,9 C 80 % 1015,4 hPa 0,0 l/m 0,0 km/h (0 Bft) SO 135 3,7 C 7,8 C 0,0 km/h (0 Bft)
03.11.2014 09:43 7,2 C 79 % 1015,4 hPa 0,0 l/m 0,0 km/h (0 Bft) SO 135 3,8 C 7,8 C 0,0 km/h (0 Bft)
03.11.2014 09:45 7,2 C 79 % 1015,4 hPa 0,0 l/m 0,0 km/h (0 Bft) SO 135 3,8 C 7,8 C 0,0 km/h (0 Bft)
03.11.2014 09:50 7,5 C 79 % 1015,4 hPa 0,0 l/m 0,0 km/h (0 Bft) SO 135 4,1 C 7,8 C 0,0 km/h (0 Bft)
03.11.2014 09:55 7,4 C 79 % 1015,4 hPa 0,0 l/m 0,0 km/h (0 Bft) SO 135 4,0 C 7,8 C 0,0 km/h (0 Bft)
03.11.2014 10:00 7,3 C 79 % 1015,2 hPa 0,0 l/m 0,0 km/h (0 Bft) SO 135 3,9 C 7,8 C 0,0 km/h (0 Bft)
03.11.2014 10:05 8,0 C 78 % 1015,2 hPa 0,0 l/m 0,0 km/h (0 Bft) SO 135 4,4 C 7,8 C 0,0 km/h (0 Bft)
03.11.2014 10:10 8,6 C 77 % 1015,2 hPa 0,0 l/m 0,0 km/h (0 Bft) SO 135 4,8 C 7,8 C 0,0 km/h (0 Bft)
03.11.2014 10:15 8,1 C 76 % 1015,2 hPa 0,0 l/m 0,0 km/h (0 Bft) SO 135 4,1 C 7,8 C 0,0 km/h (0 Bft)
03.11.2014 10:20 8,8 C 77 % 1014,9 hPa 0,0 l/m 0,0 km/h (0 Bft) SO 135 5,0 C 7,8 C 0,0 km/h (0 Bft)
03.11.2014 10:25 9,4 C 76 % 1014,9 hPa 0,0 l/m 0,0 km/h (0 Bft) SO 135 5,4 C 7,8 C 0,0 km/h (0 Bft)
03.11.2014 10:30 9,3 C 75 % 1014,9 hPa 0,0 l/m 0,0 km/h (0 Bft) SO 135 5,1 C 7,8 C 0,0 km/h (0 Bft)
03.11.2014 10:35 10,2 C 73 % 1014,9 hPa 0,0 l/m 0,0 km/h (0 Bft) SO 135 5,6 C 7,8 C 0,0 km/h (0 Bft)
03.11.2014 10:40 10,5 C 71 % 1014,9 hPa 0,0 l/m 0,0 km/h (0 Bft) SO 135 5,5 C 7,8 C 0,0 km/h (0 Bft)
03.11.2014 10:45 10,5 C 69 % 1014,9 hPa 0,0 l/m 0,0 km/h (0 Bft) SO 135 5,1 C 7,8 C 0,0 km/h (0 Bft)
03.11.2014 10:50 10,7 C 69 % 1014,9 hPa 0,0 l/m 0,0 km/h (0 Bft) SO 135 5,2 C 7,8 C 0,0 km/h (0 Bft)
03.11.2014 10:55 11,1 C 66 % 1014,9 hPa 0,0 l/m 0,0 km/h (0 Bft) SO 135 5,0 C 7,8 C 0,0 km/h (0 Bft)
03.11.2014 11:00 11,1 C 65 % 1014,9 hPa 0,0 l/m 0,0 km/h (0 Bft) SO 135 4,8 C 7,8 C 0,0 km/h (0 Bft)
03.11.2014 11:05 11,5 C 63 % 1014,9 hPa 0,0 l/m 0,0 km/h (0 Bft) SO 135 4,7 C 7,8 C 0,0 km/h (0 Bft)
03.11.2014 11:10 11,5 C 61 % 1014,9 hPa 0,0 l/m 0,0 km/h (0 Bft) SO 135 4,2 C 7,8 C 0,0 km/h (0 Bft)
03.11.2014 11:15 11,3 C 62 % 1014,9 hPa 0,0 l/m 0,0 km/h (0 Bft) SO 135 4,3 C 7,8 C 0,0 km/h (0 Bft)
03.11.2014 11:20 11,3 C 61 % 1014,9 hPa 0,0 l/m 0,0 km/h (0 Bft) SO 135 4,1 C 7,8 C 0,0 km/h (0 Bft)
03.11.2014 11:25 11,5 C 61 % 1014,9 hPa 0,0 l/m 0,0 km/h (0 Bft) SO 135 4,2 C 7,8 C 0,0 km/h (0 Bft)
03.11.2014 11:30 11,8 C 60 % 1014,9 hPa 0,0 l/m 0,0 km/h (0 Bft) SO 135 4,3 C 7,8 C 0,0 km/h (0 Bft)
03.11.2014 11:35 12,3 C 58 % 1014,9 hPa 0,0 l/m 0,0 km/h (0 Bft) SO 135 4,3 C 7,8 C 0,0 km/h (0 Bft)
03.11.2014 11:40 12,0 C 59 % 1014,6 hPa 0,0 l/m 0,0 km/h (0 Bft) SO 135 4,2 C 7,8 C 0,0 km/h (0 Bft)
03.11.2014 11:45 12,2 C 58 % 1014,6 hPa 0,0 l/m 0,0 km/h (0 Bft) SO 135 4,2 C 7,8 C 0,0 km/h (0 Bft)
03.11.2014 11:50 12,3 C 58 % 1014,6 hPa 0,0 l/m 0,0 km/h (0 Bft) SO 135 4,3 C 7,8 C 0,0 km/h (0 Bft)
03.11.2014 11:55 12,9 C 57 % 1014,6 hPa 0,0 l/m 0,0 km/h (0 Bft) SO 135 4,6 C 7,8 C 0,0 km/h (0 Bft)
03.11.2014 12:00 12,7 C 56 % 1014,2 hPa 0,0 l/m 0,0 km/h (0 Bft) SO 135 4,2 C 7,8 C 0,0 km/h (0 Bft)
03.11.2014 12:05 12,5 C 56 % 1014,2 hPa 0,0 l/m 0,0 km/h (0 Bft) SO 135 4,0 C 7,8 C 0,0 km/h (0 Bft)
03.11.2014 12:10 12,5 C 56 % 1014,2 hPa 0,0 l/m 0,0 km/h (0 Bft) SO 135 4,0 C 7,8 C 0,0 km/h (0 Bft)
03.11.2014 12:15 12,7 C 56 % 1014,2 hPa 0,0 l/m 0,0 km/h (0 Bft) SO 135 4,2 C 7,8 C 0,0 km/h (0 Bft)
03.11.2014 12:20 12,7 C 56 % 1014,1 hPa 0,0 l/m 0,0 km/h (0 Bft) SO 135 4,2 C 7,8 C 0,0 km/h (0 Bft)
03.11.2014 12:25 12,7 C 56 % 1014,1 hPa 0,0 l/m 0,0 km/h (0 Bft) SO 135 4,2 C 7,8 C 0,0 km/h (0 Bft)
03.11.2014 12:30 13,0 C 52 % 1014,1 hPa 0,0 l/m 0,0 km/h (0 Bft) SO 135 3,4 C 7,8 C 0,0 km/h (0 Bft)
03.11.2014 12:35 13,2 C 52 % 1014,1 hPa 0,0 l/m 0,0 km/h (0 Bft) SO 135 3,6 C 7,8 C 0,0 km/h (0 Bft)
03.11.2014 12:40 13,2 C 53 % 1013,7 hPa 0,0 l/m 0,0 km/h (0 Bft) SO 135 3,8 C 7,8 C 0,0 km/h (0 Bft)
03.11.2014 12:45 13,2 C 52 % 1013,7 hPa 0,0 l/m 0,0 km/h (0 Bft) SO 135 3,6 C 7,8 C 0,0 km/h (0 Bft)
03.11.2014 12:50 13,0 C 53 % 1013,7 hPa 0,0 l/m 0,0 km/h (0 Bft) SO 135 3,6 C 7,8 C 0,0 km/h (0 Bft)
03.11.2014 12:55 13,2 C 53 % 1013,7 hPa 0,0 l/m 0,0 km/h (0 Bft) SO 135 3,8 C 7,8 C 0,0 km/h (0 Bft)
03.11.2014 13:00 13,1 C 53 % 1013,5 hPa 0,0 l/m 0,0 km/h (0 Bft) SO 135 3,7 C 7,8 C 0,0 km/h (0 Bft)
03.11.2014 13:05 13,1 C 54 % 1013,5 hPa 0,0 l/m 0,0 km/h (0 Bft) SO 135 4,0 C 7,8 C 0,0 km/h (0 Bft)
03.11.2014 13:10 13,3 C 52 % 1013,5 hPa 0,0 l/m 0,0 km/h (0 Bft) SO 135 3,7 C 7,8 C 0,0 km/h (0 Bft)
03.11.2014 13:15 13,2 C 53 % 1013,5 hPa 0,0 l/m 0,0 km/h (0 Bft) SO 135 3,8 C 7,8 C 0,0 km/h (0 Bft)
03.11.2014 13:20 13,3 C 52 % 1013,3 hPa 0,0 l/m 0,0 km/h (0 Bft) SO 135 3,7 C 7,8 C 0,0 km/h (0 Bft)
03.11.2014 13:25 13,5 C 53 % 1013,3 hPa 0,0 l/m 0,0 km/h (0 Bft) SO 135 4,1 C 7,8 C 0,0 km/h (0 Bft)
03.11.2014 13:30 13,4 C 53 % 1013,3 hPa 0,0 l/m 0,0 km/h (0 Bft) SO 135 4,0 C 7,8 C 0,0 km/h (0 Bft)
03.11.2014 13:35 14,0 C 52 % 1013,3 hPa 0,0 l/m 0,0 km/h (0 Bft) SO 135 4,3 C 7,8 C 0,0 km/h (0 Bft)
03.11.2014 13:40 15,1 C 50 % 1013,1 hPa 0,0 l/m 0,0 km/h (0 Bft) SO 135 4,8 C 7,8 C 0,0 km/h (0 Bft)
03.11.2014 13:45 15,8 C 46 % 1013,1 hPa 0,0 l/m 0,0 km/h (0 Bft) SO 135 4,2 C 7,8 C 0,0 km/h (0 Bft)
03.11.2014 13:50 16,1 C 47 % 1013,1 hPa 0,0 l/m 0,0 km/h (0 Bft) SO 135 4,8 C 7,8 C 0,0 km/h (0 Bft)
03.11.2014 13:55 16,3 C 44 % 1013,1 hPa 0,0 l/m 0,0 km/h (0 Bft) SO 135 4,0 C 7,8 C 0,0 km/h (0 Bft)
03.11.2014 14:00 16,4 C 44 % 1012,7 hPa 0,0 l/m 0,0 km/h (0 Bft) SO 135 4,1 C 7,8 C 0,0 km/h (0 Bft)
03.11.2014 14:05 17,1 C 43 % 1012,7 hPa 0,0 l/m 0,0 km/h (0 Bft) SO 135 4,4 C 7,8 C 0,0 km/h (0 Bft)
03.11.2014 14:10 17,4 C 42 % 1012,7 hPa 0,0 l/m 0,0 km/h (0 Bft) SO 135 4,4 C 7,8 C 0,0 km/h (0 Bft)
03.11.2014 14:15 17,5 C 40 % 1012,7 hPa 0,0 l/m 0,0 km/h (0 Bft) SO 135 3,8 C 7,8 C 0,0 km/h (0 Bft)
03.11.2014 14:20 17,2 C 40 % 1012,4 hPa 0,0 l/m 0,0 km/h (0 Bft) SO 135 3,5 C 7,8 C 0,0 km/h (0 Bft)
03.11.2014 14:25 16,9 C 40 % 1012,4 hPa 0,0 l/m 0,0 km/h (0 Bft) SO 135 3,2 C 7,8 C 0,0 km/h (0 Bft)
03.11.2014 14:30 17,2 C 43 % 1012,4 hPa 0,0 l/m 0,0 km/h (0 Bft) SO 135 4,5 C 7,8 C 0,0 km/h (0 Bft)
03.11.2014 14:35 17,1 C 42 % 1012,4 hPa 0,0 l/m 0,0 km/h (0 Bft) SO 135 4,1 C 7,8 C 0,0 km/h (0 Bft)
03.11.2014 14:40 17,0 C 43 % 1012,1 hPa 0,0 l/m 0,0 km/h (0 Bft) SO 135 4,3 C 7,8 C 0,0 km/h (0 Bft)
03.11.2014 14:45 17,0 C 43 % 1012,1 hPa 0,0 l/m 0,0 km/h (0 Bft) SO 135 4,3 C 7,8 C 0,0 km/h (0 Bft)
03.11.2014 14:50 17,1 C 44 % 1012,1 hPa 0,0 l/m 0,0 km/h (0 Bft) SO 135 4,8 C 7,8 C 0,0 km/h (0 Bft)
03.11.2014 14:55 17,1 C 44 % 1012,1 hPa 0,0 l/m 0,0 km/h (0 Bft) SO 135 4,8 C 7,8 C 0,0 km/h (0 Bft)
03.11.2014 15:00 16,8 C 45 % 1011,8 hPa 0,0 l/m 0,0 km/h (0 Bft) SO 135 4,8 C 7,8 C 0,0 km/h (0 Bft)
03.11.2014 15:05 16,9 C 44 % 1011,8 hPa 0,0 l/m 0,0 km/h (0 Bft) SO 135 4,6 C 7,8 C 0,0 km/h (0 Bft)
03.11.2014 15:10 16,3 C 44 % 1011,8 hPa 0,0 l/m 0,0 km/h (0 Bft) SO 135 4,0 C 7,8 C 0,0 km/h (0 Bft)
03.11.2014 15:15 16,3 C 45 % 1011,8 hPa 0,0 l/m 0,0 km/h (0 Bft) SO 135 4,3 C 7,8 C 0,0 km/h (0 Bft)
03.11.2014 15:20 15,6 C 47 % 1011,4 hPa 0,0 l/m 0,0 km/h (0 Bft) SO 135 4,3 C 7,8 C 0,0 km/h (0 Bft)
03.11.2014 15:25 14,6 C 49 % 1011,4 hPa 0,0 l/m 0,0 km/h (0 Bft) SO 135 4,0 C 7,8 C 0,0 km/h (0 Bft)
03.11.2014 15:30 14,3 C 50 % 1011,4 hPa 0,0 l/m 0,0 km/h (0 Bft) SO 135 4,0 C 7,8 C 0,0 km/h (0 Bft)
03.11.2014 15:35 13,8 C 50 % 1011,4 hPa 0,0 l/m 0,0 km/h (0 Bft) SO 135 3,6 C 7,8 C 0,0 km/h (0 Bft)
03.11.2014 15:38 13,3 C 51 % 1011,1 hPa 0,0 l/m 0,0 km/h (0 Bft) SO 135 3,4 C 7,8 C 0,0 km/h (0 Bft)
03.11.2014 15:45 13,0 C 51 % 1011,1 hPa 0,0 l/m 0,0 km/h (0 Bft) SO 135 3,1 C 7,8 C 0,0 km/h (0 Bft)
03.11.2014 15:50 13,0 C 52 % 1011,1 hPa 0,0 l/m 0,0 km/h (0 Bft) SO 135 3,4 C 7,8 C 0,0 km/h (0 Bft)
03.11.2014 15:55 12,5 C 53 % 1011,1 hPa 0,0 l/m 0,0 km/h (0 Bft) SO 135 3,2 C 7,8 C 0,0 km/h (0 Bft)
03.11.2014 16:00 12,4 C 54 % 1010,8 hPa 0,0 l/m 0,0 km/h (0 Bft) SO 135 3,4 C 7,8 C 0,0 km/h (0 Bft)
03.11.2014 16:05 12,0 C 54 % 1010,8 hPa 0,0 l/m 0,0 km/h (0 Bft) SO 135 3,0 C 7,8 C 0,0 km/h (0 Bft)
03.11.2014 16:10 11,9 C 54 % 1010,8 hPa 0,0 l/m 0,0 km/h (0 Bft) SO 135 2,9 C 7,8 C 0,0 km/h (0 Bft)
03.11.2014 16:15 11,9 C 53 % 1010,8 hPa 0,0 l/m 0,0 km/h (0 Bft) SO 135 2,6 C 7,8 C 0,0 km/h (0 Bft)
03.11.2014 16:20 11,7 C 53 % 1010,6 hPa 0,0 l/m 0,0 km/h (0 Bft) SO 135 2,4 C 7,8 C 0,0 km/h (0 Bft)
03.11.2014 16:25 11,6 C 53 % 1010,6 hPa 0,0 l/m 0,0 km/h (0 Bft) SO 135 2,4 C 7,8 C 0,0 km/h (0 Bft)
03.11.2014 16:30 11,7 C 52 % 1010,6 hPa 0,0 l/m 0,0 km/h (0 Bft) SO 135 2,2 C 7,8 C 0,0 km/h (0 Bft)
03.11.2014 16:35 11,2 C 53 % 1010,6 hPa 0,0 l/m 0,0 km/h (0 Bft) SO 135 2,0 C 7,8 C 0,0 km/h (0 Bft)
03.11.2014 16:40 10,7 C 54 % 1010,2 hPa 0,0 l/m 0,0 km/h (0 Bft) SO 135 1,8 C 7,8 C 0,0 km/h (0 Bft)
03.11.2014 16:45 10,5 C 54 % 1010,2 hPa 0,0 l/m 0,0 km/h (0 Bft) SO 135 1,6 C 7,8 C 0,0 km/h (0 Bft)
03.11.2014 16:50 10,2 C 54 % 1010,2 hPa 0,0 l/m 0,0 km/h (0 Bft) SO 135 1,3 C 7,8 C 0,0 km/h (0 Bft)
03.11.2014 16:55 10,4 C 54 % 1010,2 hPa 0,0 l/m 0,0 km/h (0 Bft) SO 135 1,5 C 7,8 C 0,0 km/h (0 Bft)
03.11.2014 17:00 10,6 C 53 % 1010,1 hPa 0,0 l/m 0,0 km/h (0 Bft) SO 135 1,4 C 7,8 C 0,0 km/h (0 Bft)
03.11.2014 17:05 10,2 C 53 % 1010,1 hPa 0,0 l/m 0,0 km/h (0 Bft) SO 135 1,1 C 7,8 C 0,0 km/h (0 Bft)
03.11.2014 17:10 10,6 C 52 % 1010,1 hPa 0,0 l/m 0,0 km/h (0 Bft) SO 135 1,2 C 7,8 C 0,0 km/h (0 Bft)
03.11.2014 17:15 10,0 C 53 % 1010,1 hPa 0,0 l/m 0,0 km/h (0 Bft) SO 135 0,9 C 7,8 C 0,0 km/h (0 Bft)
03.11.2014 17:20 10,3 C 52 % 1009,8 hPa 0,0 l/m 0,0 km/h (0 Bft) SO 135 0,9 C 7,8 C 0,0 km/h (0 Bft)
03.11.2014 17:25 9,7 C 53 % 1009,8 hPa 0,0 l/m 0,0 km/h (0 Bft) SO 135 0,6 C 7,8 C 0,0 km/h (0 Bft)
03.11.2014 17:30 9,1 C 53 % 1009,8 hPa 0,0 l/m 0,0 km/h (0 Bft) SO 135 0,0 C 7,8 C 0,0 km/h (0 Bft)
03.11.2014 17:35 9,7 C 54 % 1009,8 hPa 0,0 l/m 0,0 km/h (0 Bft) SO 135 0,9 C 7,8 C 0,0 km/h (0 Bft)
03.11.2014 17:40 10,1 C 53 % 1009,7 hPa 0,0 l/m 0,0 km/h (0 Bft) SO 135 1,0 C 7,8 C 0,0 km/h (0 Bft)
03.11.2014 17:45 10,0 C 52 % 1009,7 hPa 0,0 l/m 0,0 km/h (0 Bft) SO 135 0,6 C 7,8 C 0,0 km/h (0 Bft)
03.11.2014 17:50 9,8 C 53 % 1009,7 hPa 0,0 l/m 0,0 km/h (0 Bft) SO 135 0,7 C 7,8 C 0,0 km/h (0 Bft)
03.11.2014 17:55 10,1 C 53 % 1009,7 hPa 0,0 l/m 0,0 km/h (0 Bft) SO 135 1,0 C 7,8 C 0,0 km/h (0 Bft)
03.11.2014 18:00 10,2 C 52 % 1009,7 hPa 0,0 l/m 0,0 km/h (0 Bft) SO 135 0,8 C 7,8 C 0,0 km/h (0 Bft)
03.11.2014 18:05 9,7 C 53 % 1009,7 hPa 0,0 l/m 0,0 km/h (0 Bft) SO 135 0,6 C 7,8 C 0,0 km/h (0 Bft)
03.11.2014 18:10 9,4 C 54 % 1009,7 hPa 0,0 l/m 0,0 km/h (0 Bft) SO 135 0,6 C 7,8 C 0,0 km/h (0 Bft)
03.11.2014 18:15 9,2 C 54 % 1009,7 hPa 0,0 l/m 0,0 km/h (0 Bft) SO 135 0,4 C 7,8 C 0,0 km/h (0 Bft)
03.11.2014 18:20 9,9 C 54 % 1009,5 hPa 0,0 l/m 0,0 km/h (0 Bft) SO 135 1,0 C 7,8 C 0,0 km/h (0 Bft)
03.11.2014 18:25 9,0 C 54 % 1009,5 hPa 0,0 l/m 0,0 km/h (0 Bft) SO 135 0,2 C 7,8 C 0,0 km/h (0 Bft)
03.11.2014 18:30 9,5 C 54 % 1009,5 hPa 0,0 l/m 0,0 km/h (0 Bft) SO 135 0,7 C 7,8 C 0,0 km/h (0 Bft)
03.11.2014 18:35 9,7 C 55 % 1009,5 hPa 0,0 l/m 0,0 km/h (0 Bft) SO 135 1,1 C 7,8 C 0,0 km/h (0 Bft)
03.11.2014 18:38 9,4 C 55 % 1009,6 hPa 0,0 l/m 0,0 km/h (0 Bft) SO 135 0,8 C 7,8 C 0,0 km/h (0 Bft)
03.11.2014 18:45 8,4 C 56 % 1009,6 hPa 0,0 l/m 0,0 km/h (0 Bft) SO 135 0,1 C 7,8 C 0,0 km/h (0 Bft)
03.11.2014 18:50 8,1 C 57 % 1009,6 hPa 0,0 l/m 0,0 km/h (0 Bft) SO 135 0,1 C 7,8 C 0,0 km/h (0 Bft)
03.11.2014 18:55 8,2 C 57 % 1009,6 hPa 0,0 l/m 0,0 km/h (0 Bft) SO 135 0,2 C 7,8 C 0,0 km/h (0 Bft)
03.11.2014 19:00 8,3 C 58 % 1009,5 hPa 0,0 l/m 0,0 km/h (0 Bft) SO 135 0,5 C 7,8 C 0,0 km/h (0 Bft)
03.11.2014 19:05 7,9 C 58 % 1009,5 hPa 0,0 l/m 0,0 km/h (0 Bft) SO 135 0,2 C 7,8 C 0,0 km/h (0 Bft)
03.11.2014 19:10 7,8 C 59 % 1009,5 hPa 0,0 l/m 0,0 km/h (0 Bft) SO 135 0,3 C 7,8 C 0,0 km/h (0 Bft)
03.11.2014 19:15 7,7 C 59 % 1009,5 hPa 0,0 l/m 0,0 km/h (0 Bft) SO 135 0,2 C 7,8 C 0,0 km/h (0 Bft)
03.11.2014 19:20 8,6 C 58 % 1009,1 hPa 0,0 l/m 0,0 km/h (0 Bft) SO 135 0,8 C 7,8 C 0,0 km/h (0 Bft)
03.11.2014 19:25 8,4 C 57 % 1009,1 hPa 0,0 l/m 0,0 km/h (0 Bft) SO 135 0,4 C 7,8 C 0,0 km/h (0 Bft)
03.11.2014 19:30 8,9 C 58 % 1009,1 hPa 0,0 l/m 0,0 km/h (0 Bft) SO 135 1,1 C 7,8 C 0,0 km/h (0 Bft)
03.11.2014 19:35 8,8 C 57 % 1009,1 hPa 0,0 l/m 0,0 km/h (0 Bft) SO 135 0,8 C 7,8 C 0,0 km/h (0 Bft)
03.11.2014 19:33 9,0 C 56 % 1008,8 hPa 0,0 l/m 0,0 km/h (0 Bft) SO 135 0,7 C 7,8 C 0,0 km/h (0 Bft)
03.11.2014 19:35 9,5 C 55 % 1008,8 hPa 0,0 l/m 0,0 km/h (0 Bft) SO 135 0,9 C 7,8 C 0,0 km/h (0 Bft)
03.11.2014 19:40 9,3 C 54 % 1008,8 hPa 0,0 l/m 0,0 km/h (0 Bft) SO 135 0,5 C 7,8 C 0,0 km/h (0 Bft)
03.11.2014 19:45 10,0 C 52 % 1008,8 hPa 0,0 l/m 0,0 km/h (0 Bft) SO 135 0,6 C 7,8 C 0,0 km/h (0 Bft)
03.11.2014 19:50 9,7 C 52 % 1008,6 hPa 0,0 l/m 0,0 km/h (0 Bft) SO 135 0,3 C 7,8 C 0,0 km/h (0 Bft)
03.11.2014 19:55 9,9 C 52 % 1008,6 hPa 0,0 l/m 0,0 km/h (0 Bft) SO 135 0,5 C 7,8 C 0,0 km/h (0 Bft)
03.11.2014 20:00 9,8 C 53 % 1008,6 hPa 0,0 l/m 0,0 km/h (0 Bft) SO 135 0,7 C 7,8 C 0,0 km/h (0 Bft)
03.11.2014 20:05 9,9 C 53 % 1008,6 hPa 0,0 l/m 0,0 km/h (0 Bft) SO 135 0,8 C 7,8 C 0,0 km/h (0 Bft)
03.11.2014 20:10 9,9 C 52 % 1008,2 hPa 0,0 l/m 0,0 km/h (0 Bft) SO 135 0,5 C 7,8 C 0,0 km/h (0 Bft)
03.11.2014 20:15 9,7 C 53 % 1008,2 hPa 0,0 l/m 0,0 km/h (0 Bft) SO 135 0,6 C 7,8 C 0,0 km/h (0 Bft)
03.11.2014 20:20 10,2 C 52 % 1008,2 hPa 0,0 l/m 0,0 km/h (0 Bft) SO 135 0,8 C 7,8 C 0,0 km/h (0 Bft)
03.11.2014 20:25 10,7 C 49 % 1008,2 hPa 0,0 l/m 0,0 km/h (0 Bft) SO 135 0,4 C 7,8 C 0,0 km/h (0 Bft)
03.11.2014 20:30 10,2 C 50 % 1008,0 hPa 0,0 l/m 0,0 km/h (0 Bft) SO 135 0,3 C 7,8 C 0,0 km/h (0 Bft)
03.11.2014 20:35 10,6 C 49 % 1008,0 hPa 0,0 l/m 0,0 km/h (0 Bft) SO 135 0,3 C 7,8 C 0,0 km/h (0 Bft)
03.11.2014 20:40 10,2 C 49 % 1008,0 hPa 0,0 l/m 0,0 km/h (0 Bft) SO 135 -0,0 C 7,8 C 0,0 km/h (0 Bft)
03.11.2014 20:45 10,2 C 49 % 1008,0 hPa 0,0 l/m 0,0 km/h (0 Bft) SO 135 -0,0 C 7,8 C 0,0 km/h (0 Bft)
03.11.2014 20:50 10,4 C 50 % 1008,0 hPa 0,0 l/m 0,0 km/h (0 Bft) SO 135 0,4 C 7,8 C 0,0 km/h (0 Bft)
03.11.2014 20:55 10,2 C 51 % 1007,9 hPa 0,0 l/m 0,0 km/h (0 Bft) SO 135 0,5 C 7,8 C 0,0 km/h (0 Bft)
03.11.2014 21:00 10,0 C 51 % 1007,9 hPa 0,0 l/m 0,0 km/h (0 Bft) SO 135 0,3 C 7,8 C 0,0 km/h (0 Bft)
03.11.2014 21:05 10,4 C 50 % 1007,9 hPa 0,0 l/m 0,0 km/h (0 Bft) SO 135 0,4 C 7,8 C 0,0 km/h (0 Bft)
03.11.2014 21:10 10,2 C 52 % 1007,9 hPa 0,0 l/m 0,0 km/h (0 Bft) SO 135 0,8 C 7,8 C 0,0 km/h (0 Bft)
03.11.2014 21:15 9,8 C 52 % 1007,8 hPa 0,0 l/m 0,0 km/h (0 Bft) SO 135 0,4 C 7,8 C 0,0 km/h (0 Bft)
03.11.2014 21:20 9,5 C 53 % 1007,8 hPa 0,0 l/m 0,0 km/h (0 Bft) SO 135 0,4 C 7,8 C 0,0 km/h (0 Bft)
03.11.2014 21:25 9,8 C 53 % 1007,8 hPa 0,0 l/m 0,0 km/h (0 Bft) SO 135 0,7 C 7,8 C 0,0 km/h (0 Bft)
03.11.2014 21:30 10,0 C 53 % 1007,8 hPa 0,0 l/m 0,0 km/h (0 Bft) SO 135 0,9 C 7,8 C 0,0 km/h (0 Bft)
03.11.2014 21:35 9,4 C 54 % 1007,8 hPa 0,0 l/m 0,0 km/h (0 Bft) SO 135 0,6 C 7,8 C 0,0 km/h (0 Bft)
03.11.2014 21:40 9,8 C 53 % 1007,8 hPa 0,0 l/m 0,0 km/h (0 Bft) SO 135 0,7 C 7,8 C 0,0 km/h (0 Bft)
03.11.2014 21:45 10,4 C 53 % 1007,8 hPa 0,0 l/m 0,0 km/h (0 Bft) SO 135 1,2 C 7,8 C 0,0 km/h (0 Bft)
03.11.2014 21:50 10,1 C 53 % 1007,8 hPa 0,0 l/m 0,0 km/h (0 Bft) SO 135 1,0 C 7,8 C 0,0 km/h (0 Bft)
03.11.2014 21:55 10,3 C 53 % 1007,4 hPa 0,0 l/m 0,0 km/h (0 Bft) SO 135 1,1 C 7,8 C 0,0 km/h (0 Bft)
03.11.2014 22:00 9,5 C 54 % 1007,4 hPa 0,0 l/m 0,0 km/h (0 Bft) SO 135 0,7 C 7,8 C 0,0 km/h (0 Bft)
03.11.2014 22:05 9,4 C 54 % 1007,4 hPa 0,0 l/m 0,0 km/h (0 Bft) SO 135 0,6 C 7,8 C 0,0 km/h (0 Bft)
03.11.2014 22:10 9,5 C 56 % 1007,4 hPa 0,0 l/m 0,0 km/h (0 Bft) SO 135 1,2 C 7,8 C 0,0 km/h (0 Bft)
03.11.2014 22:15 10,1 C 54 % 1007,0 hPa 0,0 l/m 0,0 km/h (0 Bft) SO 135 1,2 C 7,8 C 0,0 km/h (0 Bft)
03.11.2014 22:20 9,6 C 55 % 1007,0 hPa 0,0 l/m 0,0 km/h (0 Bft) SO 135 1,0 C 7,8 C 0,0 km/h (0 Bft)
03.11.2014 22:25 9,9 C 55 % 1007,0 hPa 0,0 l/m 0,0 km/h (0 Bft) SO 135 1,3 C 7,8 C 0,0 km/h (0 Bft)
03.11.2014 22:30 10,3 C 53 % 1007,0 hPa 0,0 l/m 0,0 km/h (0 Bft) SO 135 1,1 C 7,8 C 0,0 km/h (0 Bft)
03.11.2014 22:35 10,3 C 53 % 1007,2 hPa 0,0 l/m 0,0 km/h (0 Bft) SO 135 1,1 C 7,8 C 0,0 km/h (0 Bft)
03.11.2014 22:40 10,3 C 53 % 1007,2 hPa 0,0 l/m 0,0 km/h (0 Bft) SO 135 1,1 C 7,8 C 0,0 km/h (0 Bft)
03.11.2014 22:45 10,7 C 52 % 1007,2 hPa 0,0 l/m 0,0 km/h (0 Bft) SO 135 1,3 C 7,8 C 0,0 km/h (0 Bft)
03.11.2014 22:50 10,7 C 51 % 1007,2 hPa 0,0 l/m 0,0 km/h (0 Bft) SO 135 1,0 C 7,8 C 0,0 km/h (0 Bft)
03.11.2014 22:55 10,6 C 51 % 1006,9 hPa 0,0 l/m 0,0 km/h (0 Bft) SO 135 0,9 C 7,8 C 0,0 km/h (0 Bft)
03.11.2014 23:00 10,7 C 52 % 1006,9 hPa 0,0 l/m 0,0 km/h (0 Bft) SO 135 1,3 C 7,8 C 0,0 km/h (0 Bft)
03.11.2014 23:05 10,7 C 51 % 1006,9 hPa 0,0 l/m 0,0 km/h (0 Bft) SO 135 1,0 C 7,8 C 0,0 km/h (0 Bft)
03.11.2014 23:10 11,1 C 49 % 1006,9 hPa 0,0 l/m 0,0 km/h (0 Bft) SO 135 0,8 C 7,8 C 0,0 km/h (0 Bft)
03.11.2014 23:15 11,0 C 49 % 1006,8 hPa 0,0 l/m 0,0 km/h (0 Bft) SO 135 0,7 C 7,8 C 0,0 km/h (0 Bft)
03.11.2014 23:20 10,8 C 50 % 1006,8 hPa 0,0 l/m 0,0 km/h (0 Bft) SO 135 0,8 C 7,8 C 0,0 km/h (0 Bft)
03.11.2014 23:25 10,6 C 51 % 1006,8 hPa 0,0 l/m 0,0 km/h (0 Bft) SO 135 0,9 C 7,8 C 0,0 km/h (0 Bft)
03.11.2014 23:30 10,7 C 52 % 1006,8 hPa 0,0 l/m 0,0 km/h (0 Bft) SO 135 1,3 C 7,8 C 0,0 km/h (0 Bft)
03.11.2014 23:35 10,6 C 52 % 1006,6 hPa 0,0 l/m 0,0 km/h (0 Bft) SO 135 1,2 C 7,8 C 0,0 km/h (0 Bft)
03.11.2014 23:40 10,5 C 53 % 1006,6 hPa 0,0 l/m 0,0 km/h (0 Bft) SO 135 1,3 C 7,8 C 0,0 km/h (0 Bft)
03.11.2014 23:45 10,3 C 53 % 1006,6 hPa 0,0 l/m 0,0 km/h (0 Bft) SO 135 1,1 C 7,8 C 0,0 km/h (0 Bft)
03.11.2014 23:50 10,6 C 52 % 1006,6 hPa 0,0 l/m 0,0 km/h (0 Bft) SO 135 1,2 C 7,8 C 0,0 km/h (0 Bft)
03.11.2014 23:55 11,5 C 50 % 1006,4 hPa 0,0 l/m 0,0 km/h (0 Bft) SO 135 1,4 C 7,8 C 0,0 km/h (0 Bft)
_ Min-Zeit 04:15 14:25 23:55 - 23:55 - - 07:25 23:55 23:55
Minimum _ 2,2 C 40 % 1006,4 hPa - 0,0 km/h (0 Bft) - - -0,8 C 7,8 C 0,0 km/h (0 Bft)
_ Max-Zeit 14:15 05:55 00:15 23:55 23:55 - - 10:35 23:55 23:55
Maximum _ 17,5 C 87 % 1017,6 hPa 0,0 l/m 0,0 km/h
SO (0 Bft)
- - 5,6 C 7,8 C 0,0 km/h
SO (0 Bft)
Durchschnitt _ 8,5 C 65 % 1013,1 hPa #0,0 l/m 0,0 km/h (0 Bft) - - - 1,9 C 7,8 C 0,0 km/h (0 Bft)